Everett, WA
on Saturday, November 3, 2012

Saturday
Previous Day Next Day
Daily Summary
 ActualAverageRecord
Temperature
Mean Temperature °F °F  
Max Temperature 57°F 55°F 72°F (2010)
Min Temperature 53°F 39°F 26°F (1973)
Degree Days
Heating Degree Days 10    
Growing Degree Days5 (Base °F )  
Moisture
Dew Point 51°F   
Average Humidity 87    
Maximum Humidity 94    
Minimum Humidity 81    
Precipitation
Precipitation 0.03 in in in ()
Wind
Wind Speed 12 mph   
Max Wind Speed 25 mph   
Max Gust Speed 37 mph   
Visibility 10 miles   
Events Rain   
Averages and records for this station are not official NWS values.
Key: T is trace of precipitation, MM is missing value
Source: NWS Daily Summary
Seasonal Weather Averages
Time(PDT)TemperatureDew PointHumidity Pressure Visibility Wind DirectionWind SpeedGust SpeedPrecipitationEvents Conditions
12:53 AM 53.1°F 50.0°F 89% 29.98 in 10.0 miles South 5.8 mph - N/A   Overcast
1:53 AM 53.1°F 50.0°F 89% 29.97 in 10.0 miles South 8.1 mph - N/A   Overcast
2:48 AM 53.6°F 50.0°F 88% 29.98 in 10.0 miles South 6.9 mph - N/A   Overcast
2:53 AM 53.1°F 50.0°F 89% 29.98 in 10.0 miles SSE 8.1 mph - N/A   Overcast
3:53 AM 53.1°F 50.0°F 89% 29.99 in 10.0 miles SSE 9.2 mph - 0.00 in   Overcast
4:08 AM 53.6°F 50.0°F 88% 29.98 in 10.0 miles SSE 10.4 mph - N/A   Overcast
4:53 AM 53.1°F 50.0°F 89% 29.99 in 10.0 miles SSE 15.0 mph - N/A   Overcast
5:15 AM 53.6°F 50.0°F 88% 29.99 in 10.0 miles SSE 13.8 mph 18.4 mph N/A   Overcast
5:31 AM 53.6°F 50.0°F 88% 29.99 in 10.0 miles SSE 12.7 mph - N/A   Overcast
5:53 AM 53.1°F 50.0°F 89% 29.99 in 10.0 miles SSE 13.8 mph - N/A   Overcast
6:53 AM 53.1°F 50.0°F 89% 29.99 in 10.0 miles SSE 12.7 mph - N/A   Overcast
7:53 AM 54.0°F 50.0°F 86% 30.01 in 10.0 miles SSE 11.5 mph - N/A   Overcast
8:53 AM 54.0°F 51.1°F 90% 30.01 in 10.0 miles South 13.8 mph - N/A   Overcast
9:50 AM 53.6°F 51.8°F 94% 30.01 in 10.0 miles South 16.1 mph 24.2 mph N/A   Scattered Clouds
9:53 AM 54.0°F 51.1°F 90% 30.01 in 10.0 miles South 19.6 mph 25.3 mph N/A   Mostly Cloudy
10:53 AM 55.0°F 51.1°F 86% 30.03 in 10.0 miles South 15.0 mph - N/A   Mostly Cloudy
11:53 AM 55.9°F 51.1°F 84% 30.03 in 10.0 miles South 18.4 mph - N/A   Overcast
12:53 PM 57.0°F 52.0°F 83% 30.04 in 10.0 miles South 17.3 mph 25.3 mph N/A   Overcast
1:33 PM 57.2°F 51.8°F 82% 30.04 in 10.0 miles South 16.1 mph 26.5 mph N/A   Overcast
1:53 PM 55.9°F 52.0°F 87% 30.04 in 7.0 miles South 17.3 mph - 0.00 in Rain Light Rain
2:53 PM 57.0°F 52.0°F 83% 30.02 in 10.0 miles South 17.3 mph 25.3 mph 0.00 in   Overcast
3:44 PM 57.2°F 51.8°F 82% 30.04 in 10.0 miles South 21.9 mph 29.9 mph N/A   Mostly Cloudy
3:53 PM 57.9°F 52.0°F 81% 30.04 in 10.0 miles South 20.7 mph 29.9 mph N/A   Mostly Cloudy
4:41 PM 57.2°F 53.6°F 88% 30.04 in 10.0 miles South 21.9 mph 36.8 mph N/A   Mostly Cloudy
4:53 PM 57.9°F 52.0°F 81% 30.05 in 10.0 miles South 25.3 mph 33.4 mph N/A   Mostly Cloudy
4:58 PM 57.2°F 51.8°F 82% 30.06 in 10.0 miles South 21.9 mph 32.2 mph N/A   Scattered Clouds
5:53 PM 57.0°F 52.0°F 83% 30.08 in 10.0 miles SSW 21.9 mph 28.8 mph N/A   Overcast
6:45 PM 57.2°F 51.8°F 82% 30.11 in 10.0 miles South 17.3 mph 23.0 mph 0.00 in Rain Light Rain
6:53 PM 57.0°F 52.0°F 83% 30.12 in 10.0 miles South 13.8 mph 23.0 mph 0.01 in Rain Light Rain
7:26 PM 55.4°F 53.6°F 94% 30.13 in 10.0 miles South 13.8 mph - 0.01 in Rain Light Rain
7:34 PM 57.2°F 53.6°F 88% 30.13 in 10.0 miles SSW 13.8 mph - 0.01 in Rain Light Rain
7:53 PM 55.9°F 53.1°F 90% 30.13 in 10.0 miles South 13.8 mph - 0.02 in Rain Light Rain
8:53 PM 55.9°F 52.0°F 87% 30.13 in 10.0 miles South 11.5 mph - 0.00 in   Overcast
9:37 PM 55.4°F 51.8°F 88% 30.15 in 10.0 miles South 11.5 mph - 0.00 in   Overcast
9:53 PM 55.9°F 52.0°F 87% 30.16 in 10.0 miles South 9.2 mph - 0.00 in   Overcast
10:40 PM 55.4°F 51.8°F 88% 30.16 in 10.0 miles SSE 6.9 mph - 0.00 in Rain Light Rain
10:53 PM 55.9°F 52.0°F 87% 30.17 in 10.0 miles SSE 5.8 mph - 0.00 in Rain Light Rain
11:42 PM 55.4°F 51.8°F 88% 30.18 in 10.0 miles SSE 5.8 mph - 0.00 in   Overcast
11:53 PM 55.0°F 52.0°F 89% 30.19 in 10.0 miles South 6.9 mph - 0.00 in   Overcast
Moon Phase
Nov. 03 Nov. 06 Nov. 13 Nov. 20 Nov. 28
Sunrise:07:57 AM (PDT) Moon Rise:09:26 PM (PDT)11/3
Sunset:05:46 PM (PDT) Moon Set:12:13 PM (PDT)11/3

Copyright © 2014 The Weather Underground, Inc.